Flag for U.S.A. Weather past 2 weeks in Wilmington, Delaware, U.S.A.

Now
32 °F

Sunny.


Feels Like: 22 °F
Forecast: 26 / 46 °F
Wind: 14 mph from North

Location: New Castle County Airport

Current Time: Mar 29, 2015 at 10:47:06 AM

Latest Report: Mar 29, 2015 at 9:51 AM


Visibility: 10 mi

Pressure: 30.35 "Hg

Humidity: 35%

Dew point: 7 °F

Location of WilmingtonLocation

Historic Weather in Wilmington — Graph

°F

Wilmington temperature yesterday

Maximum temperature yesterday: 40 °F (at 12:51 AM)
Minimum temperature yesterday: 27 °F (at 11:51 PM)
Average temperature yesterday: 35 °F

Past Weeks' High & Low Weather Summary

 TemperatureHumidityPressure
High70 °F (Mar 26, 4:51 PM)100% (Mar 14, 8:51 AM)30.43 "Hg (Mar 14, 8:51 AM)
Low23 °F (Mar 29, 4:51 AM)20% (Mar 22, 4:51 PM)29.59 "Hg (Mar 26, 6:51 PM)
Average40 °F60%30.06 "Hg
* Reported Mar 14 8:51 AM — Mar 29 8:51 AM, Wilmington, Weather by CustomWeather, © 2015

Note: Actual official high and low records may vary slightly from our data, if they occured in-between our weather recording intervals... More about our weather records

Advertising

Wilmington weather history for previous 24 hours

 ConditionsComfort  
Time TempWeatherWind HumidityBarometerVisibility
8:51 AM
Sun, Mar 29
29 °FSunny.17 mph41%30.34 "Hg10 mi
7:51 AM27 °FSunny.15 mph45%30.32 "Hg10 mi
6:51 AM25 °FClear.12 mph48%30.30 "Hg10 mi
5:51 AM24 °FClear.9 mph48%30.27 "Hg10 mi
4:51 AM23 °FClear.9 mph48%30.24 "Hg10 mi
3:51 AM25 °FPassing clouds.10 mph42%30.23 "Hg10 mi
2:51 AM24 °FPassing clouds.9 mph46%30.23 "Hg10 mi
1:51 AM26 °FPassing clouds.13 mph40%30.22 "Hg10 mi
12:51 AM27 °FPassing clouds.14 mph41%30.21 "Hg10 mi
11:51 PM
Sat, Mar 28
27 °FPassing clouds.7 mph61%30.19 "Hg10 mi
10:51 PM29 °FPassing clouds.13 mph43%30.17 "Hg10 mi
9:51 PM30 °FPassing clouds.13 mph64%30.16 "Hg10 mi
8:51 PM30 °FPassing clouds.15 mph61%30.13 "Hg10 mi
7:51 PM29 °FBroken clouds.17 mph66%30.09 "Hg10 mi
6:51 PM32 °FSunny.18 mph47%30.05 "Hg10 mi
5:51 PM34 °FScattered clouds.21 mph38%30.00 "Hg10 mi
4:51 PM37 °FOvercast.20 mph36%29.97 "Hg10 mi
3:51 PM38 °FOvercast.21 mph41%29.94 "Hg10 mi
2:51 PM38 °FMostly cloudy.23 mph43%29.93 "Hg10 mi
1:51 PM37 °FPartly sunny.21 mph46%29.93 "Hg10 mi
12:51 PM36 °FOvercast.15 mph52%29.92 "Hg10 mi
11:51 AM36 °FMostly cloudy.18 mph57%29.92 "Hg10 mi
10:51 AM35 °FMostly cloudy.17 mph64%29.92 "Hg10 mi
Weather by CustomWeather, © 2015

See weather overviewHow to use our weather pages